Corning, AR

9:59 AM CDT on August 25, 2016 (GMT -0500)
Corning

Weather History for K4M9 - February, 2014

Change the Weather History Date:

Wednesday, February 19, 2014

  Actual Average (KARG) Record (KARG)
Temperature  
Mean Temperature 50 °F -  
Max Temperature 59 °F 49 °F 69 °F (2016)
Min Temperature 41 °F 34 °F 8 °F (2015)
Degree Days  
Heating Degree Days 15    
Moisture  
Dew Point 41 °F    
Average Humidity 68    
Maximum Humidity 100    
Minimum Humidity 41    
Precipitation  
Precipitation 0.00 in - - ()
Sea Level Pressure  
Sea Level Pressure 29.95 in    
Wind  
Wind Speed 7 mph (ENE)    
Max Wind Speed 12 mph    
Max Gust Speed -    
Visibility 9 miles    
Events Fog    
Averages and records for this station are not official NWS values.
T = Trace of Precipitation, MM = Missing Value Source: NWS Daily Summary

Daily Weather History Graph

Daily Weather History Graph

Search for Another Location

Airport or City:

Trip Planner

Search our weather history database for the weather conditions in past years. The results will help you decide how hot, cold, wet, or windy it might be!

Date:

Astronomy

Feb. 19, 2014 Rise Set
Actual Time 6:45 AM CST 5:47 PM CST
Civil Twilight 6:19 AM CST 6:13 PM CST
Nautical Twilight 5:49 AM CST 6:43 PM CST
Astronomical Twilight 5:19 AM CST 7:13 PM CST
Moon 10:31 PM CST (2/19) 9:00 AM CST (2/19)
Length of Visible Light 11h 54m
Length of Day
11h 01m
Waning Gibbous, 79% of the Moon is Illuminated
Feb 19
Waning Gibbous
Feb 22
Last Quarter
Mar 1
New
Mar 8
First Quarter
Mar 16
Full

Hourly Weather History & Observations

Time (CST) Temp. Windchill Dew Point Humidity Pressure Visibility Wind Dir Wind Speed Gust Speed Precip Events Conditions
12:15 AM 55.4 °F - 55.4 °F 100% 29.88 in 4.0 mi SW 10.4 mph - N/A   Clear
12:35 AM 55.4 °F - 55.4 °F 100% 29.88 in 4.0 mi SW 11.5 mph - N/A   Clear
12:55 AM 53.6 °F - 53.6 °F 100% 29.88 in 2.5 mi SW 10.4 mph - N/A   Clear
1:15 AM 51.8 °F - 51.8 °F 100% 29.88 in 1.8 mi SW 10.4 mph - N/A   Clear
1:35 AM 50.0 °F - 50.0 °F 100% 29.88 in 0.5 mi SW 9.2 mph - N/A Fog Fog
1:55 AM 50.0 °F - 50.0 °F 100% 29.89 in 0.2 mi WSW 8.1 mph - N/A Fog Fog
2:15 AM 50.0 °F - 50.0 °F 100% 29.89 in 0.2 mi WSW 9.2 mph - N/A Fog Fog
2:35 AM 51.8 °F - 51.8 °F 100% 29.91 in 1.8 mi WSW 9.2 mph - N/A   Clear
2:55 AM 50.0 °F - 50.0 °F 100% 29.93 in 0.8 mi WNW 5.8 mph - N/A   Mist
3:15 AM 48.2 °F - 48.2 °F 100% 29.94 in 0.5 mi West 8.1 mph - N/A Fog Fog
3:35 AM 48.2 °F - 48.2 °F 100% 29.94 in 8.0 mi West 8.1 mph - N/A   Clear
3:55 AM 48.2 °F - 42.8 °F 82% 29.95 in 10.0 mi WNW 8.1 mph - N/A   Clear
4:15 AM 48.2 °F - 41.0 °F 76% 29.96 in 10.0 mi West 4.6 mph - N/A   Clear
4:35 AM 48.2 °F - 39.2 °F 71% 29.95 in 10.0 mi NNW 6.9 mph - N/A   Clear
4:55 AM 46.4 °F 44.3 °F 37.4 °F 71% 29.96 in 10.0 mi NW 4.6 mph - N/A   Clear
5:15 AM 44.6 °F 42.2 °F 35.6 °F 71% 29.98 in 10.0 mi NW 4.6 mph - N/A   Clear
5:35 AM 44.6 °F 40.7 °F 33.8 °F 66% 29.99 in 10.0 mi NW 6.9 mph - N/A   Clear
5:55 AM 44.6 °F 43.1 °F 33.8 °F 66% 30.00 in 10.0 mi NW 3.5 mph - N/A   Clear
6:15 AM 44.6 °F 42.2 °F 35.6 °F 71% 30.00 in 10.0 mi NW 4.6 mph - N/A   Clear
6:35 AM 44.6 °F - 33.8 °F 66% 30.01 in 10.0 mi Calm Calm - N/A   Clear
6:55 AM 44.6 °F 42.2 °F 33.8 °F 66% 30.01 in 10.0 mi NNW 4.6 mph - N/A   Clear
7:15 AM 42.8 °F - 35.6 °F 76% 30.02 in 10.0 mi Calm Calm - N/A   Clear
7:35 AM 41.0 °F - 35.6 °F 81% 30.03 in 10.0 mi Calm Calm - N/A   Clear
7:55 AM 42.8 °F 41.1 °F 39.2 °F 87% 30.05 in 10.0 mi WSW 3.5 mph - N/A   Clear
8:15 AM 44.6 °F 43.1 °F 41.0 °F 87% 30.05 in 10.0 mi West 3.5 mph - N/A   Clear
8:35 AM 46.4 °F 45.2 °F 41.0 °F 81% 30.05 in 10.0 mi West 3.5 mph - N/A   Clear
8:55 AM 48.2 °F - 41.0 °F 76% 30.04 in 10.0 mi Calm Calm - N/A   Clear
9:15 AM 50.0 °F - 39.2 °F 66% 30.04 in 10.0 mi Calm Calm - N/A   Clear
9:35 AM 50.0 °F - 39.2 °F 66% 30.05 in 10.0 mi Calm Calm - N/A   Clear
9:55 AM 51.8 °F - 35.6 °F 54% 30.08 in 10.0 mi WNW 3.5 mph - N/A   Clear
10:15 AM 53.6 °F - 35.6 °F 51% 30.07 in 10.0 mi Calm Calm - N/A   Unknown
10:35 AM 53.6 °F - 35.6 °F 51% 30.08 in 10.0 mi East 3.5 mph - N/A   Unknown
10:55 AM 55.4 °F - 33.8 °F 44% 30.07 in 10.0 mi ENE 5.8 mph - N/A   Unknown
11:15 AM 55.4 °F - 35.6 °F 47% 30.07 in 10.0 mi East 5.8 mph - N/A   Unknown
11:35 AM 57.2 °F - 33.8 °F 41% 30.07 in 10.0 mi NE 5.8 mph - N/A   Unknown
11:55 AM 57.2 °F - 35.6 °F 44% 30.05 in 10.0 mi ESE 4.6 mph - N/A   Unknown
12:15 PM 57.2 °F - 35.6 °F 44% 30.04 in 10.0 mi SE 4.6 mph - N/A   Unknown
12:35 PM 57.2 °F - 35.6 °F 44% 30.03 in 10.0 mi ENE 6.9 mph - N/A   Unknown
12:55 PM 59.0 °F - 35.6 °F 42% 30.02 in 10.0 mi East 9.2 mph - N/A   Unknown
1:15 PM 59.0 °F - 35.6 °F 42% 30.01 in 10.0 mi ENE 10.4 mph - N/A   Unknown
1:35 PM 59.0 °F - 35.6 °F 42% 30.00 in 10.0 mi ENE 8.1 mph - N/A   Unknown
1:55 PM 59.0 °F - 35.6 °F 42% 29.99 in 10.0 mi ENE 6.9 mph - N/A   Unknown
2:15 PM 59.0 °F - 37.4 °F 45% 29.98 in 10.0 mi ENE 10.4 mph - N/A   Unknown
2:35 PM 59.0 °F - 37.4 °F 45% 29.97 in 10.0 mi ENE 10.4 mph - N/A   Unknown
2:55 PM 59.0 °F - 39.2 °F 48% 29.96 in 10.0 mi East 10.4 mph - N/A   Unknown
3:15 PM 59.0 °F - 41.0 °F 51% 29.96 in 10.0 mi East 10.4 mph - N/A   Unknown
3:35 PM 59.0 °F - 39.2 °F 48% 29.95 in 10.0 mi East 10.4 mph - N/A   Unknown
3:55 PM 57.2 °F - 37.4 °F 48% 29.95 in 10.0 mi East 10.4 mph - N/A   Unknown
4:15 PM 57.2 °F - 42.8 °F 59% 29.96 in 10.0 mi ESE 9.2 mph - N/A   Unknown
4:35 PM 55.4 °F - 41.0 °F 58% 29.96 in 10.0 mi East 9.2 mph - N/A   Unknown
4:55 PM 55.4 °F - 41.0 °F 58% 29.95 in 10.0 mi East 9.2 mph - N/A   Unknown
5:15 PM 55.4 °F - 41.0 °F 58% 29.95 in 10.0 mi East 9.2 mph - N/A   Unknown
5:35 PM 53.6 °F - 41.0 °F 62% 29.93 in 10.0 mi East 9.2 mph - N/A   Partly Cloudy
5:55 PM 53.6 °F - 41.0 °F 62% 29.93 in 10.0 mi East 9.2 mph - N/A   Mostly Cloudy
6:15 PM 53.6 °F - 41.0 °F 62% 29.91 in 10.0 mi East 8.1 mph - N/A   Overcast
6:35 PM 53.6 °F - 41.0 °F 62% 29.91 in 10.0 mi ENE 6.9 mph - N/A   Overcast
6:55 PM 53.6 °F - 44.6 °F 72% 29.91 in 10.0 mi ENE 5.8 mph - N/A   Overcast
7:15 PM 53.6 °F - 44.6 °F 72% 29.90 in 10.0 mi NE 4.6 mph - N/A   Overcast
7:35 PM 53.6 °F - 42.8 °F 67% 29.90 in 10.0 mi NE 6.9 mph - N/A   Overcast
7:55 PM 51.8 °F - 44.6 °F 76% 29.89 in 10.0 mi ENE 5.8 mph - N/A   Overcast
8:15 PM 53.6 °F - 42.8 °F 67% 29.89 in 10.0 mi NE 4.6 mph - N/A   Overcast
8:35 PM 53.6 °F - 42.8 °F 67% 29.88 in 10.0 mi NE 5.8 mph - N/A   Overcast
8:55 PM 51.8 °F - 44.6 °F 76% 29.87 in 10.0 mi ENE 5.8 mph - N/A   Overcast
9:15 PM 51.8 °F - 44.6 °F 76% 29.86 in 10.0 mi East 5.8 mph - N/A   Overcast
9:35 PM 51.8 °F - 44.6 °F 76% 29.86 in 10.0 mi East 4.6 mph - N/A   Overcast
9:55 PM 53.6 °F - 44.6 °F 72% 29.84 in 10.0 mi ESE 6.9 mph - N/A   Overcast
10:35 PM 53.6 °F - 44.6 °F 72% 29.82 in 10.0 mi SE 6.9 mph - N/A   Overcast
10:55 PM 53.6 °F - 44.6 °F 72% 29.81 in 10.0 mi SE 6.9 mph - N/A   Overcast
11:15 PM 53.6 °F - 42.8 °F 67% 29.79 in 10.0 mi SE 9.2 mph - N/A   Mostly Cloudy
11:35 PM 53.6 °F - 44.6 °F 72% 29.78 in 10.0 mi SE 8.1 mph - N/A   Mostly Cloudy
11:55 PM 53.6 °F - 46.4 °F 77% 29.78 in 10.0 mi SE 8.1 mph - N/A   Overcast